New River MCAS, NC

12:59 PM EDT on April 30, 2017 (GMT -0400)
New River Marine Corps Air Station

Weather History for KNCA - October, 2011

Change the Weather History Date:

Friday, October 21, 2011

  Actual Average Record
Temperature  
Mean Temperature 55 °F -  
Max Temperature 66 °F 70 °F 82 °F (2005)
Min Temperature 44 °F 49 °F 44 °F (1996)
Degree Days  
Heating Degree Days 10    
Growing Degree Days 5 (Base 50)    
Moisture  
Dew Point 45 °F    
Average Humidity 76    
Maximum Humidity 97    
Minimum Humidity 47    
Precipitation  
Precipitation 0.00 in - - ()
Sea Level Pressure  
Sea Level Pressure 30.06 in    
Wind  
Wind Speed 6 mph (SSW)    
Max Wind Speed 13 mph    
Max Gust Speed -    
Visibility 10 miles    
Events      
Averages and records for this station are not official NWS values.
T = Trace of Precipitation, MM = Missing Value Source: NWS Daily Summary

Daily Weather History Graph

Daily Weather History Graph

Search for Another Location

Airport or City:

Trip Planner

Search our weather history database for the weather conditions in past years. The results will help you decide how hot, cold, wet, or windy it might be!

Date:

Astronomy

Oct. 21, 2011 Rise Set
Actual Time 7:20 AM EDT 6:28 PM EDT
Civil Twilight 6:54 AM EDT 6:53 PM EDT
Nautical Twilight 6:25 AM EDT 7:23 PM EDT
Astronomical Twilight 5:55 AM EDT 7:52 PM EDT
Moon 1:22 AM EDT (10/21) 2:58 PM EDT (10/21)
Length of Visible Light 11h 59m
Length of Day
11h 07m
Waning Crescent, 34% of the Moon is Illuminated
Oct 21
Waning Crescent
Oct 26
New
Nov 2
First Quarter
Nov 10
Full
Nov 18
Last Quarter

Hourly Weather History & Observations

Time (EDT) Temp. Windchill Dew Point Humidity Pressure Visibility Wind Dir Wind Speed Gust Speed Precip Events Conditions
12:56 AM 50.0 °F - 44.1 °F 80% 30.01 in 10.0 mi West 12.7 mph - N/A   Clear
1:56 AM 50.0 °F - 43.0 °F 77% 30.03 in 10.0 mi WSW 8.1 mph - N/A   Clear
2:56 AM 46.0 °F 43.9 °F 43.0 °F 89% 30.03 in 10.0 mi SW 4.6 mph - N/A   Clear
3:56 AM 46.0 °F 44.8 °F 43.0 °F 89% 30.02 in 10.0 mi WSW 3.5 mph - N/A   Clear
4:56 AM 44.1 °F 41.5 °F 42.1 °F 93% 30.04 in 10.0 mi WSW 4.6 mph - N/A   Clear
5:56 AM 45.0 °F 42.6 °F 42.1 °F 90% 30.06 in 10.0 mi SW 4.6 mph - N/A   Clear
6:56 AM 44.1 °F 41.5 °F 42.1 °F 93% 30.07 in 10.0 mi WSW 4.6 mph - N/A   Clear
7:56 AM 45.0 °F 42.6 °F 42.1 °F 90% 30.08 in 10.0 mi WSW 4.6 mph - N/A   Clear
8:56 AM 48.9 °F - 44.1 °F 83% 30.09 in 10.0 mi West 5.8 mph - N/A   Clear
9:56 AM 53.1 °F - 45.0 °F 74% 30.10 in 10.0 mi Variable 4.6 mph - N/A   Clear
10:56 AM 57.9 °F - 44.1 °F 60% 30.10 in 10.0 mi Calm Calm - N/A   Clear
11:56 AM 61.0 °F - 43.0 °F 52% 30.10 in 10.0 mi Variable 3.5 mph - N/A   Clear
12:56 PM 62.1 °F - 44.1 °F 52% 30.07 in 10.0 mi East 5.8 mph - N/A   Clear
1:56 PM 63.0 °F - 43.0 °F 48% 30.05 in 10.0 mi East 4.6 mph - N/A   Clear
2:56 PM 64.9 °F - 45.0 °F 48% 30.03 in 10.0 mi East 3.5 mph - N/A   Clear
3:56 PM 66.9 °F - 46.0 °F 47% 30.03 in 10.0 mi East 5.8 mph - N/A   Clear
4:56 PM 64.0 °F - 46.9 °F 54% 30.03 in 10.0 mi SSE 9.2 mph - N/A   Clear
5:56 PM 60.1 °F - 46.9 °F 62% 30.05 in 10.0 mi South 4.6 mph - N/A   Clear
6:56 PM 55.9 °F - 48.9 °F 77% 30.06 in 10.0 mi Calm Calm - N/A   Clear
7:56 PM 52.0 °F - 48.9 °F 89% 30.08 in 10.0 mi Calm Calm - N/A   Clear
8:56 PM 51.1 °F - 48.9 °F 92% 30.09 in 10.0 mi Calm Calm - N/A   Clear
9:56 PM 48.9 °F - 48.0 °F 97% 30.10 in 10.0 mi Calm Calm - N/A   Clear
10:56 PM 48.0 °F - 46.9 °F 96% 30.10 in 10.0 mi Calm Calm - N/A   Clear
11:56 PM 46.9 °F - 46.0 °F 97% 30.10 in 8.0 mi Calm Calm - N/A   Clear